Weather in Arkhangelskoe

Russia / Republic of Bashkortostan     54°24′27″N   56°47′10″E
temp.,
°C
wind,
m/s
gust,
m/s
humid.,
%
clouds,
%
prec.,
mm/h
press.,
hPa
HPBL,
m
1 march, mon
mon123:00−11sw129794 0.6 100830
02:00−13sw229799 0.3 101077
05:00−14sw239798 0.7 1012116
08:00−15sw239799 0.3 101498
11:00−13sw249398 0.5 1015340
14:00−11wsw2390100 0.3 1015482
17:00−11wsw2391100 0.4 1016433
20:00−14w129792 0.3 101723
2 march, tue
tue223:00−17sw129890 0.3 101820
02:00−19sw1299100 0.1 101822
05:00−19s2599100 0.1 1017170
08:00−20ssw3109799 0.1 1015328
11:00−16s51190100 0.1 1013441
14:00−12ssw61394100 0.3 1009572
17:00−13ssw71493100 1.8 1007683
20:00−12ssw71593100 0.9 1005721
3 march, wed
wed323:00−9s61493100 1.8 1004695
02:00−6ssw61495100 1.4 1001709
05:00−4ssw61395100 2.9 1000691
08:00−3sw51096100 1.5 999517
11:00−2wsw4893100 2.7 1000738
14:00−2wsw5890100 0.3 1000857
17:00−2wsw4790100 0.5 1000746
20:00−4wsw3796100 0.3 1001385
4 march, thu
thu423:00−6wsw2697100 0.8 1002230
02:00−7wsw3796100 0.3 1002326
05:00−8wsw3696100 1.1 1003332
08:00−11wsw2596100 0.5 1005167
11:00−9wsw3694100 1.1 1005396
14:00−7sw4791100 0.3 1005559
17:00−7sw51093100 0.6 1005706
20:00−8ssw51294100 0.4 1005623
5 march, fri
fri523:00−7ssw71494100 1.8 1004805
02:00−6ssw81694100 2.4 10011006
05:00−3ssw91794100 4.7 9981175
08:00−1sw91894100 2.4 9961433
11:00−1sw101893100 4.2 9971292
14:00−1w71672100 1.1 10011614
17:00−5w5108166 1.1 10061040
20:00−10sw259299 0.0 101093